Adairsville, GA

7:53 AM EST on February 10, 2016 (GMT -0500)
Pleasant Valley Farm | | Change Station
CLOSE
Current Station
Personal Weather Station
Location: Adairsville, GA
Elevation: 922 ft
Nearby Weather Stations
Active Advisory: Winter Weather Advisory

Elev 922 ft 34.31 °N, 84.86 °W | Updated 2 minutes ago

Partly Cloudy
Partly Cloudy
19.2 °F
Feels Like 19 °F
N
1.1
Wind Variable Wind from West

Today
High -- | Low -- °F
--% Chance of Precip.
Yesterday
High -- | Low -- °F
Precip. -- in
Pressure 30.13 in
Visibility 10.0 miles
Clouds Few 3500 ft
Windchill 19 °F
Dew Point 12 °F
Humidity 74%
Rainfall 0.00 in
Snow Depth Not available.
7:30 AM 6:18 PM
Waxing Crescent, 5% visible
METAR KVPC 101153Z AUTO 00000KT 10SM FEW035 M06/M11 A3012 RMK AO2 SLP203 60000 70003 T10611111 11028 21061 51015
Pressure 30.13 in
Visibility 10.0 miles
Clouds Few 3500 ft
Windchill 19 °F
Dew Point 12 °F
Humidity 74%
Rainfall 0.00 in
Snow Depth Not available.
7:30 AM 6:18 PM
Waxing Crescent, 5% visible
METAR KVPC 101153Z AUTO 00000KT 10SM FEW035 M06/M11 A3012 RMK AO2 SLP203 60000 70003 T10611111 11028 21061 51015

10-Day Weather Forecast

Almanac

Astronomy

Feb. 10, 2016 Rise Set
Actual Time
Civil Twilight
Nautical Twilight
Astronomical Twilight
Moon
Length of Visible Light
Length of Day
Tomorrow will be .
, % of the Moon is Illuminated

Today's Extremes

State Highs State Lows

Community

WunderPhotos

Upload Photos

1,891,837 photos uploaded!

WunderBlog® & News

Nearby

Air Quality

  Air Quality AQ Index Pollutant
Not available.

Snow Depth

Station Depth Elevation

Earthquake Activity

City Distance Mag. Time & Date
Minimum magnitude displayed is 2.5.

Coastal Water Temperatures

Place Temperature

Stations

Nearby Weather Stations

Station Location Temp. Windchill Dew Point Humidity Wind Precip. Elev Updated Type
                   

Watches & Warnings

Winter Weather Advisory
Issued: 3:26 AM EST Feb. 10, 2016 – National Weather Service

... Winter Weather Advisory now in effect until 7 PM EST this
evening...

* locations... northwest Georgia.

* Hazard types... lingering snow showers and flurries with black
ice.

* Accumulations... little... if any... additional snowfall.

* Impacts... any lingering moisture on the roadways is expected to
refreeze and increase the potential for icy roads. Secondary
roads along with bridges and overpasses will be most prone to
the icy conditions.

Precautionary/preparedness actions...

A Winter Weather Advisory for snow means that periods of snow
will cause primarily travel difficulties. Be prepared for snow
covered roads and limited visibilities... and use caution while
driving.